Location: Lourdes
(43.1000°N, 0.0500°W)
Time: 03:57:22
(UTC+00:00)

Cosmos 1151 Rocket - Pass Details

Date: 20 April 2021
Orbit: 593 x 615 km, 82.5° (Epoch: 18 May)

Event Time Altitude Azimuth Distance (km) Brightness Sun altitude
Exits shadow 23:46:26 19° 357° (N) 1,443 5.5 -35.0°
Drops below altitude 10° 23:47:46 10° 1° (N) 1,959 6.4 -35.0°
Sets 23:50:02 0° 5° (N) 2,870 7.5 -35.0°
